Location: G�nzburg
(48.4565°N, 10.3217°E)
Time: 06:11:44
(UTC+02:00)

ISS - Visible Passes

Search period start: 09 May 2021 00:00
Search period end: 19 May 2021 00:00
Orbit: 418 x 421 km, 51.6° (Epoch: 08 May)

Date Brightness Start Highest point End Pass type
(mag) Time Alt. Az. Time Alt. Az. Time Alt. Az.
09 May -2.0 02:03:26 28° ENE 02:03:26 28° ENE 02:05:11 10° ENE visible
09 May -2.8 03:36:22 16° WNW 03:38:47 47° N 03:42:05 10° ENE visible
10 May -0.9 01:17:27 12° ENE 01:17:27 12° ENE 01:17:43 10° ENE visible
10 May -3.0 02:50:22 38° WNW 02:51:16 51° N 02:54:36 10° ENE visible
10 May -3.0 04:25:04 10° WNW 04:28:24 56° NNE 04:31:45 10° E visible
11 May -2.9 02:04:21 50° NNE 02:04:21 50° NNE 02:07:08 10° ENE visible
11 May -2.8 03:37:36 10° WNW 03:40:55 49° N 03:44:13 10° E visible
12 May -1.7 01:18:16 23° ENE 01:18:16 23° ENE 01:19:41 10° ENE visible
12 May -2.7 02:51:12 19° WNW 02:53:24 46° N 02:56:41 10° ENE visible
12 May -3.8 04:27:01 10° WNW 04:30:25 88° NNE 04:33:48 10° ESE visible
13 May -0.9 00:32:06 11° ENE 00:32:06 11° ENE 00:32:15 10° ENE visible
13 May -2.8 02:05:02 37° NW 02:05:52 47° N 02:09:09 10° ENE visible
13 May -3.4 03:39:35 10° WNW 03:42:58 68° NNE 03:46:21 10° E visible
14 May -2.9 01:18:38 49° NNE 01:18:38 49° NNE 01:21:40 10° ENE visible
14 May -3.1 02:52:08 10° WNW 02:55:29 56° NNE 02:58:48 10° E visible
14 May -3.5 04:29:01 10° WNW 04:32:16 46° SSW 04:35:32 10° SE visible
14 May -3.4 22:50:53 10° SW 22:54:04 41° SSE 22:55:39 24° E visible
15 May -3.2 00:27:30 10° W 00:30:50 59° NNW 00:34:11 10° ENE visible
15 May -2.8 02:04:39 10° WNW 02:07:57 49° N 02:11:16 10° E visible
15 May -3.9 03:41:32 10° WNW 03:44:54 67° SSW 03:48:15 10° SE visible
15 May -2.9 22:03:49 10° SSW 22:06:44 28° SE 22:09:41 10° E visible
15 May -3.6 23:40:00 10° WSW 23:43:21 73° NNW 23:46:44 10° ENE visible
16 May -2.7 01:17:10 10° WNW 01:20:26 46° N 01:23:43 10° ENE visible
16 May -3.8 02:54:04 10° WNW 02:57:28 88° NNE 03:00:51 10° ESE visible
16 May -2.5 04:31:21 10° W 04:33:57 21° SW 04:36:34 10° S visible
16 May -3.9 22:52:32 10° WSW 22:55:53 86° SSE 22:59:17 10° ENE visible
17 May -2.7 00:29:37 10° W 00:32:54 47° N 00:36:12 10° ENE visible
17 May -3.5 02:06:38 10° WNW 02:10:00 69° NNE 02:13:23 10° ESE visible
17 May -3.0 03:43:38 10° W 03:46:40 31° SW 03:49:41 10° SSE visible
17 May -3.8 22:05:09 10° SW 22:08:28 61° SSE 22:11:49 10° ENE visible
17 May -2.9 23:42:04 10° W 23:45:22 51° N 23:48:42 10° ENE visible
18 May -3.1 01:19:10 10° WNW 01:22:30 56° NNE 01:22:56 51° NE visible
18 May -3.1 22:54:32 10° W 22:57:52 59° NNW 23:01:13 10° ENE visible
